Location: Dalton
(34.7700°N, 84.9700°W)
Time: 01:56:57
(UTC-04:00)

OTV 5 (USA 277) - Pass Details

Date: 16 October 2017
Orbit: 404 x 417 km, 43.0° (Epoch: 07 September)

Event Time Altitude Azimuth Distance (km) Brightness Sun altitude
Rises 21:04:22 0° 301° (WNW) 2,354 ? -25.6°
Reaches altitude 10° 21:06:44 10° 315° (NW) 1,490 ? -26.0°
Enters shadow 21:07:46 16° 328° (NNW) 1,176 ? -26.3°
